• Em Portugal
  • Lista de países
  • Para 7 dias
  • Temperatura da água
  • Mapas de satélite
  • Mapa do tempo
  • Widgets de tempo
  • user-avatar
    Iniciar Sessão

    Previsão horária em Akaba

    Hoje, 26 Setembro, Terça-feira

    Tempo Temperatura Precipitação Vento Pressão Humidade
    00:00 +28°C° 0 mm 2 m/s 749 mmHg 60%
    01:00 +28°C° 0 mm 2 m/s 749 mmHg 64%
    02:00 +27°C° 0 mm 3 m/s 749 mmHg 69%
    03:00 +27°C° 0 mm 2 m/s 749 mmHg 71%
    04:00 +26°C° 0 mm 2 m/s 749 mmHg 73%
    05:00 +26°C° 0 mm 2 m/s 749 mmHg 75%
    06:00 +27°C° 0 mm 2 m/s 749 mmHg 70%
    07:00 +28°C° 0 mm 2 m/s 749 mmHg 65%
    08:00 +29°C° 0 mm 2 m/s 749 mmHg 56%
    09:00 +31°C° 0 mm 2 m/s 749 mmHg 49%
    10:00 +33°C° 0 mm 3 m/s 749 mmHg 43%
    11:00 +35°C° 0 mm 3 m/s 749 mmHg 36%
    12:00 +36°C° 0 mm 3 m/s 749 mmHg 33%
    13:00 +36°C° 0 mm 4 m/s 748 mmHg 31%
    14:00 +37°C° 0 mm 4 m/s 748 mmHg 28%
    15:00 +37°C° 0 mm 5 m/s 748 mmHg 29%
    16:00 +36°C° 0 mm 5 m/s 748 mmHg 30%
    17:00 +35°C° 0 mm 5 m/s 748 mmHg 31%
    18:00 +34°C° 0 mm 5 m/s 749 mmHg 35%
    19:00 +33°C° 0 mm 4 m/s 749 mmHg 39%
    20:00 +30°C° 0 mm 4 m/s 750 mmHg 44%
    21:00 +29°C° 0 mm 3 m/s 750 mmHg 48%
    22:00 +29°C° 0 mm 3 m/s 750 mmHg 52%
    23:00 +28°C° 0 mm 2 m/s 750 mmHg 56%

    Amanhã, 27 Setembro, Quarta-feira

    Tempo Temperatura Precipitação Vento Pressão Humidade
    00:00 +27°C° 0 mm 2 m/s 750 mmHg 59%
    01:00 +27°C° 0 mm 2 m/s 750 mmHg 62%
    02:00 +26°C° 0 mm 2 m/s 750 mmHg 65%
    03:00 +26°C° 0 mm 2 m/s 750 mmHg 66%
    04:00 +25°C° 0 mm 2 m/s 751 mmHg 68%
    05:00 +25°C° 0 mm 2 m/s 751 mmHg 69%
    06:00 +26°C° 0 mm 2 m/s 751 mmHg 64%
    07:00 +27°C° 0 mm 2 m/s 751 mmHg 58%
    08:00 +28°C° 0 mm 3 m/s 751 mmHg 53%
    09:00 +30°C° 0 mm 3 m/s 751 mmHg 46%
    10:00 +31°C° 0 mm 3 m/s 751 mmHg 39%
    11:00 +34°C° 0 mm 3 m/s 751 mmHg 32%
    12:00 +35°C° 0 mm 4 m/s 750 mmHg 29%
    13:00 +36°C° 0 mm 4 m/s 750 mmHg 27%
    14:00 +36°C° 0 mm 4 m/s 749 mmHg 24%
    15:00 +36°C° 0 mm 4 m/s 749 mmHg 25%
    16:00 +35°C° 0 mm 4 m/s 749 mmHg 26%
    17:00 +35°C° 0 mm 5 m/s 749 mmHg 27%
    18:00 +34°C° 0 mm 4 m/s 749 mmHg 32%
    19:00 +32°C° 0 mm 4 m/s 750 mmHg 36%
    20:00 +30°C° 0 mm 4 m/s 750 mmHg 40%
    21:00 +29°C° 0 mm 3 m/s 750 mmHg 45%
    22:00 +28°C° 0 mm 3 m/s 750 mmHg 50%
    23:00 +28°C° 0 mm 2 m/s 750 mmHg 54%

    Depois de amanhã, 28 Setembro, Quinta-feira

    Tempo Temperatura Precipitação Vento Pressão Humidade
    00:00 +27°C° 0 mm 2 m/s 750 mmHg 57%
    01:00 +27°C° 0 mm 2 m/s 750 mmHg 60%
    02:00 +26°C° 0 mm 2 m/s 750 mmHg 63%
    03:00 +26°C° 0 mm 2 m/s 750 mmHg 65%
    04:00 +25°C° 0 mm 2 m/s 750 mmHg 67%
    05:00 +25°C° 0 mm 2 m/s 750 mmHg 68%
    06:00 +26°C° 0 mm 2 m/s 750 mmHg 63%
    07:00 +27°C° 0 mm 3 m/s 750 mmHg 58%
    08:00 +27°C° 0 mm 3 m/s 750 mmHg 53%
    09:00 +29°C° 0 mm 3 m/s 750 mmHg 47%
    10:00 +31°C° 0 mm 3 m/s 750 mmHg 41%
    11:00 +33°C° 0 mm 3 m/s 749 mmHg 35%
    12:00 +34°C° 0 mm 3 m/s 749 mmHg 32%
    13:00 +35°C° 0 mm 4 m/s 748 mmHg 29%
    14:00 +36°C° 0 mm 4 m/s 748 mmHg 26%
    15:00 +35°C° 0 mm 4 m/s 747 mmHg 28%
    16:00 +35°C° 0 mm 4 m/s 747 mmHg 29%
    17:00 +34°C° 0 mm 4 m/s 747 mmHg 30%
    18:00 +33°C° 0 mm 4 m/s 748 mmHg 35%
    19:00 +32°C° 0 mm 4 m/s 748 mmHg 40%
    20:00 +30°C° 0 mm 3 m/s 749 mmHg 45%
    21:00 +29°C° 0 mm 3 m/s 749 mmHg 50%
    22:00 +28°C° 0 mm 3 m/s 749 mmHg 55%
    23:00 +27°C° 0 mm 3 m/s 749 mmHg 60%

    29 Setembro, Sexta-feira

    Tempo Temperatura Precipitação Vento Pressão Humidade
    00:00 +27°C° 0 mm 3 m/s 749 mmHg 64%
    01:00 +26°C° 0 mm 3 m/s 749 mmHg 67%
    02:00 +25°C° 0 mm 2 m/s 748 mmHg 70%
    03:00 +25°C° 0 mm 2 m/s 748 mmHg 73%
    04:00 +24°C° 0 mm 2 m/s 748 mmHg 75%
    05:00 +24°C° 0 mm 2 m/s 748 mmHg 77%
    06:00 +25°C° 0 mm 2 m/s 748 mmHg 73%
    07:00 +25°C° 0 mm 2 m/s 749 mmHg 68%
    08:00 +26°C° 0 mm 2 m/s 749 mmHg 64%
    09:00 +28°C° 0 mm 2 m/s 749 mmHg 55%
    10:00 +29°C° 0 mm 3 m/s 748 mmHg 47%
    11:00 +31°C° 0 mm 3 m/s 748 mmHg 39%
    12:00 +33°C° 0 mm 3 m/s 747 mmHg 35%
    13:00 +33°C° 0 mm 4 m/s 747 mmHg 31%
    14:00 +34°C° 0 mm 4 m/s 746 mmHg 28%
    15:00 +34°C° 0 mm 4 m/s 746 mmHg 28%
    16:00 +33°C° 0 mm 5 m/s 746 mmHg 29%
    17:00 +32°C° 0 mm 5 m/s 746 mmHg 29%
    18:00 +30°C° 0 mm 4 m/s 747 mmHg 34%
    19:00 +29°C° 0 mm 4 m/s 748 mmHg 39%
    20:00 +28°C° 0 mm 4 m/s 748 mmHg 44%
    21:00 +28°C° 0 mm 3 m/s 749 mmHg 49%
    22:00 +27°C° 0 mm 3 m/s 749 mmHg 53%
    23:00 +26°C° 0 mm 2 m/s 749 mmHg 58%

    30 Setembro, Sábado

    Tempo Temperatura Precipitação Vento Pressão Humidade
    00:00 +26°C° 0 mm 2 m/s 749 mmHg 60%
    01:00 +25°C° 0 mm 2 m/s 749 mmHg 62%
    02:00 +25°C° 0 mm 2 m/s 749 mmHg 64%
    03:00 +24°C° 0 mm 2 m/s 749 mmHg 64%
    04:00 +24°C° 0 mm 2 m/s 749 mmHg 65%
    05:00 +24°C° 0 mm 2 m/s 749 mmHg 65%
    06:00 +24°C° 0 mm 2 m/s 749 mmHg 62%
    07:00 +25°C° 0 mm 2 m/s 750 mmHg 58%
    08:00 +26°C° 0 mm 2 m/s 750 mmHg 54%
    09:00 +27°C° 0 mm 2 m/s 750 mmHg 48%
    10:00 +29°C° 0 mm 2 m/s 749 mmHg 42%
    11:00 +30°C° 0 mm 2 m/s 749 mmHg 35%
    12:00 +31°C° 0 mm 3 m/s 748 mmHg 32%
    13:00 +33°C° 0 mm 3 m/s 748 mmHg 29%
    14:00 +34°C° 0 mm 3 m/s 747 mmHg 26%
    15:00 +33°C° 0 mm 3 m/s 747 mmHg 27%
    16:00 +33°C° 0 mm 3 m/s 747 mmHg 27%
    17:00 +33°C° 0 mm 3 m/s 747 mmHg 28%
    18:00 +31°C° 0 mm 3 m/s 748 mmHg 31%
    19:00 +30°C° 0 mm 3 m/s 748 mmHg 34%
    20:00 +29°C° 0 mm 3 m/s 749 mmHg 36%
    21:00 +28°C° 0 mm 3 m/s 749 mmHg 40%
    22:00 +27°C° 0 mm 3 m/s 749 mmHg 44%
    23:00 +27°C° 0 mm 3 m/s 749 mmHg 47%

    1 Outubro, Domingo

    Tempo Temperatura Precipitação Vento Pressão Humidade
    00:00 +26°C° 0 mm 2 m/s 749 mmHg 51%
    01:00 +26°C° 0 mm 2 m/s 749 mmHg 54%
    02:00 +25°C° 0 mm 2 m/s 750 mmHg 58%
    03:00 +25°C° 0 mm 2 m/s 750 mmHg 59%
    04:00 +24°C° 0 mm 2 m/s 750 mmHg 61%
    05:00 +24°C° 0 mm 2 m/s 750 mmHg 63%
    06:00 +25°C° 0 mm 2 m/s 751 mmHg 59%
    07:00 +26°C° 0 mm 2 m/s 751 mmHg 54%
    08:00 +27°C° 0 mm 2 m/s 751 mmHg 50%
    09:00 +29°C° 0 mm 2 m/s 751 mmHg 44%
    10:00 +31°C° 0 mm 3 m/s 750 mmHg 38%
    11:00 +33°C° 0 mm 3 m/s 750 mmHg 33%
    12:00 +34°C° 0 mm 3 m/s 749 mmHg 31%
    13:00 +35°C° 0 mm 3 m/s 749 mmHg 28%
    14:00 +35°C° 0 mm 3 m/s 748 mmHg 26%
    15:00 +35°C° 0 mm 4 m/s 748 mmHg 27%
    16:00 +34°C° 0 mm 4 m/s 748 mmHg 29%
    17:00 +34°C° 0 mm 5 m/s 748 mmHg 30%
    18:00 +33°C° 0 mm 4 m/s 749 mmHg 35%
    19:00 +30°C° 0 mm 4 m/s 749 mmHg 40%
    20:00 +29°C° 0 mm 4 m/s 750 mmHg 46%
    21:00 +28°C° 0 mm 4 m/s 750 mmHg 52%
    22:00 +27°C° 0 mm 3 m/s 750 mmHg 58%
    23:00 +26°C° 0 mm 3 m/s 750 mmHg 64%
    Mostrar mais